Taylorville, IL

6:23 AM CDT on October 14, 2019 (GMT -0500)
Taylorville Municipal

Weather History for KTAZ - September, 2019

Change the Weather History Date:

Wednesday, September 18, 2019

  Actual Average (KSPI) Record (KSPI)
Temperature  
Mean Temperature 73 °F -  
Max Temperature 84 °F 78 °F 95 °F (1893)
Min Temperature 62 °F 55 °F 35 °F (1901)
Cooling Degree Days 8    
Growing Degree Days 23 (Base 50)    
Moisture  
Dew Point 64 °F    
Average Humidity 78    
Maximum Humidity 100    
Minimum Humidity 48    
Precipitation  
Precipitation 0.00 in - - ()
Sea Level Pressure  
Sea Level Pressure 30.07 in    
Wind  
Wind Speed 6 mph (ESE)    
Max Wind Speed 9 mph    
Max Gust Speed -    
Visibility 10 miles    
Events      
Averages and records for this station are not official NWS values.
T = Trace of Precipitation, MM = Missing Value Source: NWS Daily Summary

Daily Weather History Graph

Daily Weather History Graph

Search for Another Location

Airport or City:

Astronomy

Sep. 18, 2019 Rise Set
Actual Time 6:41 AM CDT 7:01 PM CDT
Civil Twilight 6:14 AM CDT 7:28 PM CDT
Nautical Twilight 5:42 AM CDT 7:59 PM CDT
Astronomical Twilight 5:10 AM CDT 8:31 PM CDT
Moon 9:36 PM CDT (9/18) 10:43 AM CDT (9/18)
Length of Visible Light 13h 14m
Length of Day
12h 20m
Waning Gibbous, 82% of the Moon is Illuminated
Sep 18
Waning Gibbous
Sep 21
Last Quarter
Sep 28
New
Oct 5
First Quarter
Oct 13
Full

Hourly Weather History & Observations

Time (CDT) Temp. Heat Index Dew Point Humidity Pressure Visibility Wind Dir Wind Speed Gust Speed Precip Events Conditions
12:18 AM 66.2 °F - 64.4 °F 94% 30.08 in 10.0 mi ESE 6.9 mph - N/A   Clear
12:38 AM 66.2 °F - 64.4 °F 94% 30.08 in 10.0 mi ESE 6.9 mph - N/A   Clear
12:58 AM 66.2 °F - 64.4 °F 94% 30.08 in 10.0 mi East 6.9 mph - N/A   Clear
1:18 AM 66.2 °F - 64.4 °F 94% 30.08 in 10.0 mi East 6.9 mph - N/A   Clear
1:38 AM 66.2 °F - 64.4 °F 94% 30.09 in 10.0 mi ESE 6.9 mph - N/A   Clear
1:59 AM 66.2 °F - 64.4 °F 94% 30.08 in 10.0 mi ESE 6.9 mph - N/A   Clear
2:18 AM 64.4 °F - 64.4 °F 100% 30.08 in 7.0 mi ESE 6.9 mph - N/A   Clear
2:37 AM 64.4 °F - 64.4 °F 100% 30.08 in 7.0 mi ESE 5.8 mph - N/A   Clear
3:38 AM 64.4 °F - 62.6 °F 94% 30.07 in 7.0 mi ESE 5.8 mph - N/A   Clear
4:18 AM 64.4 °F - 62.6 °F 94% 30.07 in 10.0 mi ESE 5.8 mph - N/A   Clear
4:38 AM 64.4 °F - 62.6 °F 94% 30.07 in 10.0 mi ESE 6.9 mph - N/A   Clear
4:58 AM 64.4 °F - 62.6 °F 94% 30.07 in 10.0 mi ESE 6.9 mph - N/A   Clear
5:18 AM 64.4 °F - 62.6 °F 94% 30.07 in 10.0 mi ESE 6.9 mph - N/A   Clear
5:38 AM 64.4 °F - 62.6 °F 94% 30.07 in 10.0 mi ESE 6.9 mph - N/A   Clear
5:58 AM 64.4 °F - 62.6 °F 94% 30.07 in 10.0 mi SE 6.9 mph - N/A   Clear
6:17 AM 62.6 °F - 62.6 °F 100% 30.07 in 7.0 mi ESE 5.8 mph - N/A   Clear
6:38 AM 62.6 °F - 62.6 °F 100% 30.08 in 7.0 mi ESE 4.6 mph - N/A   Clear
6:57 AM 62.6 °F - 62.6 °F 100% 30.08 in 7.0 mi ESE 4.6 mph - N/A   Clear
7:18 AM 62.6 °F - 62.6 °F 100% 30.09 in 5.0 mi ESE 4.6 mph - N/A   Clear
7:59 AM 66.2 °F - 62.6 °F 88% 30.09 in 7.0 mi SE 5.8 mph - N/A   Clear
8:18 AM 66.2 °F - 62.6 °F 88% 30.08 in 10.0 mi ESE 6.9 mph - N/A   Clear
8:38 AM 66.2 °F - 62.6 °F 88% 30.09 in 10.0 mi SE 6.9 mph - N/A   Clear
8:59 AM 69.8 °F - 64.4 °F 83% 30.09 in 10.0 mi SE 8.1 mph - N/A   Clear
9:18 AM 71.6 °F - 64.4 °F 78% 30.10 in 10.0 mi SE 8.1 mph - N/A   Clear
9:38 AM 73.4 °F - 64.4 °F 73% 30.10 in 10.0 mi SE 9.2 mph - N/A   Clear
9:58 AM 73.4 °F - 64.4 °F 73% 30.10 in 10.0 mi SSE 6.9 mph - N/A   Clear
10:18 AM 75.2 °F - 66.2 °F 73% 30.10 in 10.0 mi SE 6.9 mph - N/A   Clear
10:37 AM 77.0 °F - 64.4 °F 65% 30.10 in 10.0 mi SSE 8.1 mph - N/A   Clear
10:59 AM 78.8 °F - 64.4 °F 61% 30.10 in 10.0 mi SSE 8.1 mph - N/A   Clear
11:18 AM 78.8 °F - 64.4 °F 61% 30.10 in 10.0 mi SSE 5.8 mph - N/A   Clear
11:39 AM 80.6 °F 82.3 °F 64.4 °F 58% 30.10 in 10.0 mi SSE 6.9 mph - N/A   Clear
12:00 PM 80.6 °F 82.3 °F 64.4 °F 58% 30.10 in 10.0 mi SSE 5.8 mph - N/A   Clear
12:18 PM 80.6 °F 82.3 °F 64.4 °F 58% 30.10 in 10.0 mi SSE 4.6 mph - N/A   Clear
12:37 PM 82.4 °F 83.9 °F 64.4 °F 54% 30.11 in 10.0 mi ESE 4.6 mph - N/A   Clear
12:59 PM 82.4 °F 83.9 °F 64.4 °F 54% 30.10 in 10.0 mi SE 5.8 mph - N/A   Clear
1:18 PM 84.2 °F 85.6 °F 64.4 °F 51% 30.10 in 10.0 mi East 5.8 mph - N/A   Clear
1:38 PM 84.2 °F 85.6 °F 64.4 °F 51% 30.10 in 10.0 mi East 5.8 mph - N/A   Clear
1:58 PM 84.2 °F 85.0 °F 62.6 °F 48% 30.09 in 10.0 mi Calm Calm - N/A   Clear
2:18 PM 84.2 °F 85.6 °F 64.4 °F 51% 30.08 in 10.0 mi East 5.8 mph - N/A   Clear
2:38 PM 84.2 °F 85.6 °F 64.4 °F 51% 30.08 in 10.0 mi ESE 6.9 mph - N/A   Clear
3:18 PM 84.2 °F 85.0 °F 62.6 °F 48% 30.06 in 10.0 mi ESE 6.9 mph - N/A   Clear
3:38 PM 84.2 °F 85.0 °F 62.6 °F 48% 30.05 in 10.0 mi SSE 6.9 mph - N/A   Clear
4:19 PM 84.2 °F 85.0 °F 62.6 °F 48% 30.05 in 10.0 mi SE 6.9 mph - N/A   Clear
4:38 PM 84.2 °F 85.6 °F 64.4 °F 51% 30.05 in 10.0 mi SE 4.6 mph - N/A   Clear
4:58 PM 84.2 °F 85.0 °F 62.6 °F 48% 30.05 in 10.0 mi ESE 5.8 mph - N/A   Clear
5:18 PM 82.4 °F 83.9 °F 64.4 °F 54% 30.04 in 10.0 mi SE 5.8 mph - N/A   Clear
5:38 PM 82.4 °F 83.9 °F 64.4 °F 54% 30.04 in 10.0 mi SE 4.6 mph - N/A   Clear
5:59 PM 80.6 °F 82.3 °F 64.4 °F 58% 30.04 in 10.0 mi SE 3.5 mph - N/A   Clear
6:39 PM 78.8 °F - 64.4 °F 61% 30.04 in 10.0 mi ESE 3.5 mph - N/A   Clear
6:58 PM 78.8 °F - 64.4 °F 61% 30.05 in 10.0 mi ESE 3.5 mph - N/A   Clear
7:19 PM 75.2 °F - 64.4 °F 69% 30.05 in 10.0 mi ESE 4.6 mph - N/A   Clear
7:37 PM 73.4 °F - 66.2 °F 78% 30.05 in 10.0 mi East 3.5 mph - N/A   Clear
8:18 PM 71.6 °F - 66.2 °F 83% 30.05 in 10.0 mi Calm Calm - N/A   Clear
8:38 PM 69.8 °F - 66.2 °F 88% 30.05 in 10.0 mi Calm Calm - N/A   Clear
8:58 PM 66.2 °F - 64.4 °F 94% 30.05 in 10.0 mi Calm Calm - N/A   Clear
9:18 PM 68.0 °F - 66.2 °F 94% 30.05 in 10.0 mi East 3.5 mph - N/A   Clear
9:38 PM 68.0 °F - 64.4 °F 88% 30.05 in 10.0 mi ESE 4.6 mph - N/A   Clear
9:57 PM 69.8 °F - 66.2 °F 88% 30.05 in 10.0 mi SE 4.6 mph - N/A   Clear
10:17 PM 66.2 °F - 64.4 °F 94% 30.05 in 10.0 mi Calm Calm - N/A   Clear
10:38 PM 66.2 °F - 64.4 °F 94% 30.06 in 10.0 mi Calm Calm - N/A   Clear
10:58 PM 66.2 °F - 64.4 °F 94% 30.05 in 10.0 mi Calm Calm - N/A   Clear
11:18 PM 64.4 °F - 62.6 °F 94% 30.06 in 10.0 mi Calm Calm - N/A   Clear
11:38 PM 64.4 °F - 62.6 °F 94% 30.06 in 10.0 mi Calm Calm - N/A   Clear
11:58 PM 64.4 °F - 62.6 °F 94% 30.06 in 10.0 mi Calm Calm - N/A   Clear